FW8882 Weather Reports


time (UTC)temp
C
wind
direction
speed
KPH
gust
KPH
rain 1hr
cm
rain 24hr
cm
rain mn
cm
humidity
%
barometer
mb
20260831224850 28 326 0.0 0.0 0.00 0.00 0.00 84 1016.0
20260831224344 28 326 0.0 0.0 0.00 0.00 0.00 85 1016.0
20260831223839 28 326 0.0 0.0 0.00 0.00 0.00 86 1015.8
20260831223335 28 326 0.0 0.0 0.00 0.00 0.00 85 1016.1
20260831222832 28 326 0.0 1.6 0.00 0.00 0.00 85 1015.9
20260831222327 28 326 0.0 0.0 0.00 0.00 0.00 83 1015.8
20260831221827 28 325 0.0 0.0 0.00 0.00 0.00 82 1015.7
20260831221323 28 325 0.0 0.0 0.00 0.00 0.00 81 1015.5
20260831220818 28 325 0.0 0.0 0.00 0.00 0.00 81 1015.7
20260831220313 28 324 0.0 0.0 0.00 0.00 0.00 80 1015.6
20260831215808 28 330 0.0 1.6 0.00 0.00 0.00 79 1015.4
20260831215306 28 308 0.0 1.6 0.00 0.00 0.00 79 1015.6
20260831214801 28 332 0.0 1.6 0.00 0.00 0.00 79 1015.6
20260831214258 28 273 0.0 1.6 0.00 0.00 0.00 78 1015.7
20260831213753 28 331 0.0 0.0 0.00 0.00 0.00 79 1015.8
20260831213250 28 314 1.6 1.6 0.00 0.00 0.00 78 1015.6
20260831212749 28 329 0.0 3.2 0.00 0.00 0.00 78 1015.6
20260831212247 28 325 1.6 1.6 0.00 0.00 0.00 78 1015.6
20260831211745 28 313 0.0 1.6 0.00 0.00 0.00 79 1015.5
20260831211240 29 340 0.0 0.0 0.00 0.00 0.00 80 1015.9
20260831210735 29 353 0.0 1.6 0.00 0.00 0.00 79 1015.6
20260831210231 30 341 0.0 1.6 0.00 0.00 0.00 79 1015.8
20260831205729 30 335 0.0 1.6 0.00 0.00 0.00 78 1015.7
20260831205221 30 342 0.0 1.6 0.00 0.00 0.00 78 1016.1
20260831204720 29 350 0.0 0.0 0.00 0.00 0.00 80 1016.0
20260831204220 29 338 0.0 1.6 0.00 0.00 0.00 80 1015.8
20260831203719 29 330 0.0 1.6 0.00 0.00 0.00 79 1016.0
20260831203219 29 217 3.2 4.8 0.00 0.00 0.00 80 1016.1
20260831202717 29 320 0.0 1.6 0.00 0.00 0.00 79 1016.5
20260831202213 29 323 0.0 0.0 0.00 0.00 0.00 80 1016.3
20260831201707 28 322 0.0 0.0 0.00 0.00 0.00 82 1016.5
20260831201206 29 321 0.0 0.0 0.00 0.00 0.00 82 1016.4
20260831200702 28 321 0.0 1.6 0.00 0.00 0.00 83 1016.3
20260831200202 29 328 0.0 1.6 0.00 0.00 0.00 80 1016.2
20260831195657 29 333 0.0 1.6 0.00 0.00 0.00 82 1016.4
20260831195153 29 343 0.0 0.0 0.00 0.00 0.00 80 1016.4
20260831194648 29 335 0.0 1.6 0.00 0.00 0.00 81 1016.5
20260831194143 29 337 0.0 0.0 0.00 0.00 0.00 82 1016.5
20260831193637 29 337 0.0 1.6 0.00 0.00 0.00 80 1016.9
20260831193133 29 282 0.0 1.6 0.00 0.00 0.00 80 1016.8
20260831192628 30 324 0.0 1.6 0.00 0.00 0.00 79 1016.9
20260831192124 30 332 0.0 0.0 0.00 0.00 0.00 77 1016.7
20260831191620 29 347 0.0 0.0 0.00 0.00 0.00 78 1016.9
20260831191115 29 330 0.0 1.6 0.00 0.00 0.00 77 1016.9
20260831190610 30 347 0.0 0.0 0.00 0.00 0.00 78 1017.1
20260831190108 30 335 1.6 1.6 0.00 0.00 0.00 77 1017.0
20260831185559 30 334 0.0 0.0 0.00 0.00 0.00 80 1016.9
20260831185054 29 296 1.6 1.6 0.00 0.00 0.00 79 1017.0
20260831184553 29 321 1.6 1.6 0.00 0.00 0.00 77 1017.1
20260831184049 29 312 1.6 3.2 0.00 0.00 0.00 76 1017.1
20260831183548 29 333 3.2 4.8 0.00 0.00 0.00 75 1017.3
20260831183043 30 336 1.6 3.2 0.00 0.00 0.00 79 1017.4
20260831182542 30 339 0.0 3.2 0.00 0.00 0.00 76 1017.6
20260831182038 30 329 0.0 1.6 0.00 0.00 0.00 79 1017.3
20260831181533 30 314 0.0 1.6 0.00 0.00 0.00 77 1017.4
20260831181032 30 224 3.2 3.2 0.00 0.00 0.00 73 1017.6
20260831180527 30 303 3.2 4.8 0.00 0.00 0.00 73 1017.4
20260831180023 30 328 0.0 3.2 0.00 0.00 0.00 77 1017.7
20260831175518 30 215 4.8 11.3 0.00 0.00 0.00 73 1017.6
20260831175015 30 339 1.6 3.2 0.00 0.00 0.00 74 1017.4
20260831174514 30 308 1.6 3.2 0.00 0.00 0.00 74 1017.7
20260831174009 30 336 0.0 3.2 0.00 0.00 0.00 75 1017.4
20260831173507 30 323 1.6 3.2 0.00 0.00 0.00 73 1017.7
20260831173003 30 322 1.6 4.8 0.00 0.00 0.00 73 1017.8
20260831172458 30 301 1.6 1.6 0.00 0.00 0.00 74 1017.6
20260831171953 30 306 3.2 4.8 0.00 0.00 0.00 72 1017.8
20260831171449 30 333 4.8 8.0 0.00 0.00 0.00 74 1017.7
20260831170946 29 240 1.6 3.2 0.00 0.00 0.00 76 1017.9
20260831170442 30 342 1.6 4.8 0.00 0.00 0.00 73 1017.8
20260831165938 30 311 4.8 4.8 0.00 0.00 0.00 74 1017.7
20260831165434 30 324 3.2 4.8 0.00 0.00 0.00 72 1017.9
20260831164931 30 334 1.6 3.2 0.00 0.00 0.00 72 1018.0
20260831164426 29 316 3.2 4.8 0.00 0.00 0.00 75 1018.0
20260831163921 29 323 1.6 4.8 0.00 0.00 0.00 73 1018.1
20260831163417 30 327 1.6 8.0 0.00 0.00 0.00 72 1018.1
20260831162915 30 320 1.6 3.2 0.00 0.00 0.00 73 1018.1
20260831162411 30 302 0.0 3.2 0.00 0.00 0.00 72 1017.9
20260831161909 30 310 3.2 8.0 0.00 0.00 0.00 72 1018.1
20260831161406 29 336 0.0 1.6 0.00 0.00 0.00 73 1018.2
20260831160901 29 221 1.6 3.2 0.00 0.00 0.00 73 1018.1
20260831160356 29 328 1.6 3.2 0.00 0.00 0.00 74 1018.0
20260831155851 29 324 1.6 3.2 0.00 0.00 0.00 75 1018.2
20260831155350 28 333 1.6 3.2 0.00 0.00 0.00 76 1018.1
20260831154846 28 329 0.0 1.6 0.00 0.00 0.00 77 1018.1
20260831154343 28 329 0.0 3.2 0.00 0.00 0.00 79 1018.1
20260831153841 28 289 1.6 8.0 0.00 0.00 0.00 78 1018.0
20260831153337 28 325 3.2 3.2 0.00 0.00 0.00 79 1018.0
20260831152833 28 347 1.6 1.6 0.00 0.00 0.00 81 1018.0
20260831152329 27 318 4.8 4.8 0.00 0.00 0.00 80 1018.1
20260831151823 27 335 0.0 3.2 0.00 0.00 0.00 80 1018.0
20260831151322 27 328 0.0 3.2 0.00 0.00 0.00 82 1017.8
20260831150818 27 338 0.0 1.6 0.00 0.00 0.00 82 1017.8
20260831150313 27 335 0.0 1.6 0.00 0.00 0.00 83 1018.1
20260831145812 27 336 0.0 1.6 0.00 0.00 0.00 84 1017.8
20260831145309 27 320 1.6 1.6 0.00 0.00 0.00 84 1017.8
20260831144804 27 329 0.0 1.6 0.00 0.00 0.00 84 1017.8
20260831144300 26 331 0.0 0.0 0.00 0.00 0.00 85 1017.8
20260831143800 26 327 0.0 1.6 0.00 0.00 0.00 84 1017.7
20260831143255 26 336 0.0 1.6 0.00 0.00 0.00 83 1017.6
20260831142750 26 337 0.0 1.6 0.00 0.00 0.00 83 1017.7
20260831142246 26 321 0.0 1.6 0.00 0.00 0.00 84 1017.6
20260831141745 26 331 0.0 1.6 0.00 0.00 0.00 83 1017.4
20260831141245 26 337 0.0 3.2 0.00 0.00 0.00 85 1017.4
20260831140740 25 328 0.0 1.6 0.00 0.00 0.00 84 1017.3
20260831140235 25 337 0.0 1.6 0.00 0.00 0.00 86 1017.1
20260831135732 25 338 0.0 0.0 0.00 0.00 0.00 87 1017.3
20260831135228 25 334 0.0 1.6 0.00 0.00 0.00 87 1017.1
20260831134724 25 314 1.6 1.6 0.00 0.00 0.00 87 1017.3
20260831134220 24 349 0.0 3.2 0.00 0.00 0.00 87 1017.6
20260831133719 24 339 0.0 1.6 0.00 0.00 0.00 88 1017.4
20260831133213 24 312 1.6 1.6 0.00 0.00 0.00 88 1017.6
20260831132709 25 320 1.6 1.6 0.00 0.00 0.00 87 1017.3
20260831132208 24 299 1.6 1.6 0.00 0.00 0.00 87 1017.7
20260831131703 24 305 1.6 3.2 0.00 0.00 0.00 86 1017.6
20260831131200 23 306 1.6 1.6 0.00 0.00 0.00 90 1017.7
20260831130654 23 328 1.6 1.6 0.00 0.00 0.00 90 1017.6
20260831130150 22 326 0.0 1.6 0.00 0.00 0.00 91 1017.6
20260831125648 22 317 0.0 1.6 0.00 0.00 0.00 91 1017.7
20260831125144 22 284 1.6 1.6 0.00 0.00 0.00 91 1017.4
20260831124639 22 323 0.0 1.6 0.00 0.00 0.00 92 1017.4
20260831124135 22 322 0.0 1.6 0.00 0.00 0.00 93 1017.6
20260831123630 22 334 0.0 0.0 0.00 0.00 0.00 93 1017.3
20260831123129 22 335 0.0 0.0 0.00 0.00 0.00 93 1017.6
20260831122628 22 335 0.0 0.0 0.00 0.00 0.00 94 1017.7
20260831122125 22 335 0.0 0.0 0.00 0.00 0.00 94 1017.6
20260831121624 21 335 0.0 0.0 0.00 0.00 0.00 94 1017.6
20260831121120 21 332 0.0 0.0 0.00 0.00 0.00 94 1017.3
20260831120615 21 335 0.0 0.0 0.00 0.00 0.00 94 1017.6
20260831120110 21 336 0.0 0.0 0.00 0.00 0.00 94 1017.3
20260831115606 21 335 0.0 0.0 0.00 0.00 0.00 94 1017.2
20260831115102 21 336 0.0 0.0 0.00 0.00 0.00 94 1017.1
20260831114600 21 336 0.0 0.0 0.00 0.00 0.00 94 1017.2
20260831114055 21 336 0.0 0.0 0.00 0.00 0.00 94 1017.2
20260831113554 21 336 0.0 0.0 0.00 0.00 0.00 94 1017.1
20260831113050 21 334 0.0 0.0 0.00 0.00 0.00 94 1017.0
20260831112549 21 334 0.0 1.6 0.00 0.00 0.00 94 1017.0
20260831112044 21 335 0.0 1.6 0.00 0.00 0.00 94 1017.1
20260831111541 21 334 0.0 0.0 0.00 0.00 0.00 93 1017.0
20260831111036 21 285 0.0 1.6 0.00 0.00 0.00 93 1016.8
20260831110531 21 291 1.6 1.6 0.00 0.00 0.00 93 1016.8
20260831110026 21 335 0.0 0.0 0.00 0.00 0.00 93 1016.7
20260831105525 21 300 1.6 1.6 0.00 0.00 0.00 93 1016.8
20260831105020 21 314 1.6 1.6 0.00 0.00 0.00 93 1016.7
20260831104517 21 316 0.0 0.0 0.00 0.00 0.00 94 1016.9
20260831104012 21 293 0.0 3.2 0.00 0.00 0.00 94 1016.9
20260831103507 21 314 0.0 1.6 0.00 0.00 0.00 94 1016.8
20260831103003 21 315 0.0 1.6 0.00 0.00 0.00 94 1017.0
20260831102457 21 326 0.0 0.0 0.00 0.00 0.00 94 1016.9
20260831101952 21 325 0.0 0.0 0.00 0.00 0.00 94 1016.9
20260831101447 21 332 0.0 0.0 0.00 0.00 0.00 94 1016.8
20260831100943 21 291 0.0 1.6 0.00 0.00 0.00 94 1016.7
20260831100439 21 315 1.6 1.6 0.00 0.00 0.00 94 1016.7
20260831095934 21 328 0.0 1.6 0.00 0.00 0.00 94 1016.6
20260831095433 21 325 0.0 0.0 0.00 0.00 0.00 94 1016.6
20260831094928 21 316 0.0 1.6 0.00 0.00 0.00 94 1016.7
20260831094424 21 315 0.0 1.6 0.00 0.00 0.00 94 1016.8
20260831093920 21 323 0.0 1.6 0.00 0.00 0.00 94 1016.7
20260831093414 21 317 0.0 1.6 0.00 0.00 0.00 94 1016.7
20260831092912 21 324 0.0 0.0 0.00 0.00 0.00 94 1016.8
20260831092407 21 323 0.0 0.0 0.00 0.00 0.00 94 1016.9
20260831091902 21 325 0.0 1.6 0.00 0.00 0.00 94 1016.9
20260831091357 21 309 1.6 1.6 0.00 0.00 0.00 94 1016.8
20260831090852 21 331 0.0 0.0 0.00 0.00 0.00 94 1016.9
20260831090348 21 331 0.0 0.0 0.00 0.00 0.00 94 1016.8
20260831085845 21 333 0.0 1.6 0.00 0.00 0.00 94 1016.9
20260831085338 21 334 0.0 0.0 0.00 0.00 0.00 94 1016.8
20260831084833 21 333 0.0 0.0 0.00 0.00 0.00 94 1016.9
20260831084329 21 316 0.0 0.0 0.00 0.00 0.00 94 1016.7
20260831083826 21 329 0.0 0.0 0.00 0.00 0.00 94 1016.8
20260831083321 21 334 0.0 0.0 0.00 0.00 0.00 94 1016.5
20260831082819 21 335 0.0 0.0 0.00 0.00 0.00 94 1016.5
20260831082314 21 334 0.0 0.0 0.00 0.00 0.00 93 1016.5
20260831081810 21 325 0.0 0.0 0.00 0.00 0.00 93 1016.5
20260831081305 21 333 0.0 0.0 0.00 0.00 0.00 93 1016.6
20260831080801 21 334 0.0 0.0 0.00 0.00 0.00 93 1016.4
20260831080255 21 331 0.0 0.0 0.00 0.00 0.00 93 1016.5
20260831075751 21 329 0.0 0.0 0.00 0.00 0.00 93 1016.4
20260831075247 21 336 0.0 0.0 0.00 0.00 0.00 93 1016.3
20260831074746 21 324 0.0 0.0 0.00 0.00 0.00 93 1016.5
20260831074245 21 315 0.0 0.0 0.00 0.00 0.00 93 1016.3
20260831073742 21 337 0.0 0.0 0.00 0.00 0.00 93 1016.6
20260831073240 21 334 0.0 0.0 0.00 0.00 0.00 93 1016.7
20260831072736 21 334 0.0 0.0 0.00 0.00 0.00 93 1016.6
20260831072232 21 317 0.0 1.6 0.00 0.00 0.00 93 1016.5
20260831071732 21 332 0.0 0.0 0.00 0.00 0.00 93 1016.7
20260831071226 21 332 0.0 0.0 0.00 0.00 0.00 93 1016.5
20260831070721 21 332 0.0 0.0 0.00 0.00 0.00 93 1016.7
20260831070215 21 317 0.0 1.6 0.00 0.00 0.00 93 1016.4
20260831065714 21 325 0.0 1.6 0.00 0.00 0.00 93 1016.7
20260831065212 21 325 0.0 1.6 0.00 0.00 0.00 93 1016.8
20260831064708 21 323 0.0 0.0 0.00 0.00 0.00 93 1016.8
20260831064202 21 333 0.0 0.0 0.00 0.00 0.00 93 1017.0
20260831063659 21 334 0.0 0.0 0.00 0.00 0.00 93 1017.0
20260831063149 21 334 0.0 0.0 0.00 0.00 0.00 93 1017.0
20260831062648 21 334 0.0 0.0 0.00 0.00 0.00 93 1017.1
20260831062148 21 334 0.0 0.0 0.00 0.00 0.00 93 1017.0
20260831061646 21 334 0.0 0.0 0.00 0.00 0.00 92 1017.1
20260831061142 21 334 0.0 0.0 0.00 0.00 0.00 92 1017.2
20260831060638 21 334 0.0 0.0 0.00 0.00 0.00 92 1017.0
20260831060138 21 334 0.0 0.0 0.00 0.00 0.00 91 1017.1
20260831055637 21 334 0.0 0.0 0.00 0.00 0.00 91 1017.1
20260831055132 21 334 0.0 0.0 0.00 0.00 0.00 91 1017.2
20260831054632 22 334 0.0 0.0 0.00 0.00 0.00 90 1016.9
20260831054131 22 331 0.0 0.0 0.00 0.00 0.00 90 1017.1
20260831053626 22 317 0.0 0.0 0.00 0.00 0.00 90 1017.3
20260831053120 22 331 0.0 0.0 0.00 0.00 0.00 90 1017.2
20260831052619 22 315 0.0 0.0 0.00 0.00 0.00 90 1017.2
20260831052118 22 302 0.0 1.6 0.00 0.00 0.00 91 1017.3
20260831051616 21 316 0.0 0.0 0.00 0.00 0.00 91 1017.4
20260831051115 21 334 0.0 0.0 0.00 0.00 0.00 91 1017.4
20260831050610 21 316 0.0 1.6 0.00 0.00 0.00 92 1017.4
20260831050108 21 330 0.0 0.0 0.00 0.00 0.00 93 1017.2
20260831045603 21 316 0.0 1.6 0.00 0.00 0.00 93 1017.4
20260831045058 21 335 0.0 0.0 0.00 0.00 0.00 93 1017.2
20260831044553 21 334 0.0 0.0 0.00 0.00 0.00 93 1017.4
20260831044048 21 335 0.0 0.0 0.00 0.00 0.00 93 1017.2
20260831043543 21 334 0.0 0.0 0.00 0.00 0.00 93 1017.1
20260831043038 21 334 0.0 0.0 0.00 0.00 0.00 93 1017.2
20260831042538 21 329 0.0 0.0 0.00 0.00 0.00 93 1017.4
20260831042033 21 333 0.0 0.0 0.00 0.00 0.00 93 1017.4
20260831041528 21 330 0.0 0.0 0.00 0.00 0.00 93 1017.4
20260831041021 21 333 0.0 0.0 0.00 0.00 0.00 93 1017.3
20260831040516 21 332 0.0 0.0 0.00 0.00 0.00 93 1017.7
20260831040016 21 333 0.0 0.0 0.00 0.00 0.00 93 1017.2
20260831035513 21 335 0.0 0.0 0.00 0.00 0.00 93 1017.4
20260831035009 21 335 0.0 0.0 0.00 0.00 0.00 93 1017.6
20260831034503 21 335 0.0 0.0 0.00 0.00 0.00 93 1017.4
20260831033959 21 335 0.0 0.0 0.00 0.00 0.00 94 1017.4
20260831033454 21 335 0.0 0.0 0.00 0.00 0.00 93 1017.6
20260831032950 21 335 0.0 0.0 0.00 0.00 0.00 93 1017.6
20260831032449 21 335 0.0 0.0 0.00 0.00 0.00 93 1017.6
20260831031945 21 335 0.0 0.0 0.00 0.00 0.00 93 1017.3
20260831031444 21 335 0.0 0.0 0.00 0.00 0.00 93 1017.4
20260831030943 21 334 0.0 0.0 0.00 0.00 0.00 93 1017.7
20260831030443 21 334 0.0 0.0 0.00 0.00 0.00 93 1017.6
20260831025941 21 329 0.0 0.0 0.00 0.00 0.00 93 1017.7
20260831025440 21 335 0.0 0.0 0.00 0.00 0.00 94 1017.6
20260831024936 21 335 0.0 0.0 0.00 0.00 0.00 93 1017.6
20260831024436 21 335 0.0 0.0 0.00 0.00 0.00 93 1017.3
20260831023931 21 333 0.0 0.0 0.00 0.00 0.00 93 1017.7
20260831023429 21 333 0.0 0.0 0.00 0.00 0.00 93 1017.4
20260831022925 21 333 0.0 0.0 0.00 0.00 0.00 93 1017.3
20260831022423 21 333 0.0 0.0 0.00 0.00 0.00 92 1017.4
20260831021918 22 333 0.0 0.0 0.00 0.00 0.00 92 1017.3
20260831021418 22 333 0.0 0.0 0.00 0.00 0.00 92 1017.4
20260831020914 22 333 0.0 0.0 0.00 0.00 0.00 92 1017.7
20260831020413 22 331 0.0 0.0 0.00 0.00 0.00 91 1017.8
20260831015908 22 335 0.0 0.0 0.00 0.00 0.00 91 1017.7
20260831015404 22 336 0.0 0.0 0.00 0.00 0.00 90 1017.7
20260831014904 22 335 0.0 0.0 0.00 0.00 0.00 90 1017.9
20260831014359 22 335 0.0 0.0 0.00 0.00 0.00 90 1017.8
20260831013855 22 334 0.0 0.0 0.00 0.00 0.00 90 1017.9
20260831013350 22 334 0.0 0.0 0.00 0.00 0.00 90 1017.9
20260831012844 22 335 0.0 0.0 0.00 0.00 0.00 90 1017.8
20260831012340 22 336 0.0 0.0 0.00 0.00 0.00 90 1017.8
20260831011839 22 337 0.0 0.0 0.00 0.00 0.00 90 1017.7
20260831011334 22 336 0.0 0.0 0.00 0.00 0.00 90 1017.9
20260831010831 22 337 0.0 0.0 0.00 0.00 0.00 89 1017.8
20260831010330 23 337 0.0 0.0 0.00 0.00 0.00 89 1017.7
20260831005826 23 336 0.0 0.0 0.00 0.00 0.00 89 1017.4
20260831005322 23 336 0.0 0.0 0.00 0.00 0.00 89 1017.8
20260831004816 23 335 0.0 0.0 0.00 0.00 0.00 88 1017.6
20260831004312 23 336 0.0 0.0 0.00 0.00 0.00 88 1017.6
20260831003807 23 336 0.0 0.0 0.00 0.00 0.00 88 1017.6
20260831003303 23 336 0.0 0.0 0.00 0.00 0.00 87 1017.3
20260831002757 24 336 0.0 0.0 0.00 0.00 0.00 87 1017.3
20260831002256 24 335 0.0 0.0 0.00 0.00 0.00 86 1017.4
20260831001753 25 335 0.0 0.0 0.00 0.00 0.00 85 1017.1
20260831001248 25 335 0.0 0.0 0.00 0.00 0.00 84 1017.4
20260831000745 25 334 0.0 0.0 0.00 0.00 0.00 86 1017.3
20260831000244 25 335 0.0 0.0 0.00 0.00 0.00 86 1017.2
20260830235743 25 335 0.0 0.0 0.00 0.00 0.00 85 1016.9
20260830235238 25 335 0.0 0.0 0.00 0.00 0.00 85 1016.9
20260830234733 25 336 0.0 0.0 0.00 0.00 0.00 85 1017.0
20260830234229 26 336 0.0 0.0 0.00 0.00 0.00 85 1017.0
20260830233725 26 336 0.0 0.0 0.00 0.00 0.00 82 1017.0
20260830233220 26 336 0.0 0.0 0.00 0.00 0.00 84 1016.8
20260830232716 26 335 0.0 0.0 0.00 0.00 0.00 84 1016.7
20260830232211 26 335 0.0 0.0 0.00 0.00 0.00 83 1016.7
20260830231708 27 335 0.0 0.0 0.00 0.00 0.00 81 1016.5
20260830231207 27 336 0.0 0.0 0.00 0.00 0.00 80 1016.5
20260830230702 27 334 0.0 0.0 0.00 0.00 0.00 78 1016.6
20260830230157 27 334 0.0 0.0 0.00 0.00 0.00 76 1016.3
20260830225651 27 332 0.0 0.0 0.00 0.00 0.00 75 1016.4